Вернуться в каталог

STARLINK-5048

АктивенСвязьVLEO
NORAD 53911·PAYLOAD·🇺🇸 United States

Запущен Sep 24, 2022 с Cape Canaveral Space Force Station

Loading…

Ближайшие Пролёты (ближайшие 24 часа)

TLE

СвежийSource: CelesTrak SupGP

Эпоха: Sep 15, 2026, 01:30 UTC

1 53911C 22119AB  26258.06298611 -.00010750  00000+0 -67428-3 0  2582
2 53911  53.1589 183.5419 0001595  85.7622 187.4685 15.08833047    12

Отслеживайте STARLINK-5048 в реальном времени с AllMySat

Download on the App Store